Location: Waco, TX
(31.5480°N, 97.1670°W)
Time: 10:33:34
(UTC-05:00)

ISS - Pass Details

Date: 20 May 2018
Orbit: 402 x 407 km, 51.6° (Epoch: 27 May)

Event Time Altitude Azimuth Distance (km) Brightness Sun altitude
Rises 20:36:30 0° 187° (S) 2,303 -0.2 -3.7°
Reaches altitude 10° 20:39:16 10° 161° (SSE) 1,448 -1.4 -4.2°
Maximum altitude 20:41:05 14° 126° (SE) 1,221 -2.0 -4.6°
Drops below altitude 10° 20:42:55 10° 92° (E) 1,451 -1.6 -4.9°
Sets 20:45:42 0° 66° (ENE) 2,313 -0.4 -5.4°
